Weather History for Milas, Turkey

Change the Weather History Date:

Thursday, October 6, 2011

  Actual Average (LGKO) Record (LGKO)
Temperature  
Mean Temperature 66 °F -  
Max Temperature 78 °F 75 °F 82 °F (2006)
Min Temperature 55 °F 64 °F 53 °F (2013)
Cooling Degree Days 2    
Growing Degree Days 16 (Base 50)    
Moisture  
Dew Point 56 °F    
Average Humidity 68    
Maximum Humidity 88    
Minimum Humidity 44    
Precipitation  
Precipitation 0.00 in - - ()
Sea Level Pressure  
Sea Level Pressure 30.05 in    
Wind  
Wind Speed 5 mph ()    
Max Wind Speed 18 mph    
Max Gust Speed -    
Visibility 6.2 miles    
Events      
Averages and records for this station are not official NWS values.
T = Trace of Precipitation, MM = Missing Value Source: Averaged Metar Reports

Daily Weather History Graph

Daily Weather History Graph

Search for Another Location

Airport:

Trip Planner

Search our weather history database for the weather conditions in past years. The results will help you decide how hot, cold, wet, or windy it might be!

Date:

Astronomy

Oct. 06, 2011 Rise Set
Actual Time 7:08 AM EEST 6:45 PM EEST
Civil Twilight 6:42 AM EEST 7:11 PM EEST
Nautical Twilight 6:12 AM EEST 7:42 PM EEST
Astronomical Twilight 5:42 AM EEST 8:12 PM EEST
Moon 3:43 PM EEST (10/6) 1:44 AM EEST (10/6)
Length of Visible Light 12h 29m
Length of Day
11h 37m
Waxing Gibbous, 72% of the Moon is Illuminated
Oct 6
Waxing Gibbous
Oct 12
Full
Oct 20
Last Quarter
Oct 26
New
Nov 2
First Quarter

Hourly Weather History & Observations

Time (EEST) Temp. Dew Point Humidity Pressure Visibility Wind Dir Wind Speed Gust Speed Precip Events Conditions
12:20 AM 62.6 °F 53.6 °F 72% 30.06 in - SSE 4.6 mph - N/A   Clear
12:50 AM 62.6 °F 53.6 °F 72% 30.06 in - Variable 2.3 mph - N/A   Clear
1:20 AM 60.8 °F 53.6 °F 77% 30.04 in - SSE 4.6 mph - N/A   Clear
1:50 AM 59.0 °F 53.6 °F 82% 30.04 in - ESE 3.5 mph - N/A   Clear
2:20 AM 59.0 °F 53.6 °F 82% 30.04 in - ESE 3.5 mph - N/A   Clear
2:50 AM 59.0 °F 53.6 °F 82% 30.06 in - SSE 3.5 mph - N/A   Clear
3:20 AM 59.0 °F 53.6 °F 82% 30.04 in - East 3.5 mph - N/A   Clear
3:50 AM 59.0 °F 53.6 °F 82% 30.04 in - SSE 5.8 mph - N/A   Clear
4:20 AM 59.0 °F 53.6 °F 82% 30.04 in - SSE 2.3 mph - N/A   Clear
4:50 AM 57.2 °F 51.8 °F 82% 30.04 in - East 1.2 mph - N/A   Clear
5:20 AM 57.2 °F 51.8 °F 82% 30.04 in - East 4.6 mph - N/A   Clear
5:50 AM 57.2 °F 53.6 °F 88% 30.04 in - SSE 3.5 mph - N/A   Clear
6:20 AM 57.2 °F 53.6 °F 88% 30.04 in - Calm Calm - N/A   Clear
6:50 AM 55.4 °F 51.8 °F 88% 30.06 in - Calm Calm - N/A   Clear
7:20 AM 55.4 °F 51.8 °F 88% 30.06 in - ESE 3.5 mph - N/A   Clear
7:50 AM 57.2 °F 53.6 °F 88% 30.06 in - Calm Calm - N/A   Clear
8:20 AM 59.0 °F 53.6 °F 82% 30.06 in - Calm Calm - N/A   Clear
8:50 AM 62.6 °F 55.4 °F 77% 30.06 in - Variable 1.2 mph - N/A   Clear
9:20 AM 64.4 °F 55.4 °F 73% 30.06 in - ESE 3.5 mph - N/A   Clear
9:50 AM 68.0 °F 55.4 °F 64% 30.09 in - Variable 2.3 mph - N/A   Clear
10:20 AM 71.6 °F 55.4 °F 57% 30.09 in - Variable 3.5 mph - N/A   Clear
10:50 AM 73.4 °F 55.4 °F 53% 30.09 in - Variable 3.5 mph - N/A   Clear
11:20 AM 75.2 °F 57.2 °F 53% 30.09 in - WNW 4.6 mph - N/A   Clear
11:50 AM 77.0 °F 57.2 °F 50% 30.06 in - West 6.9 mph - N/A   Clear
12:20 PM 77.0 °F 55.4 °F 47% 30.06 in 6.2 mi WNW 6.9 mph - N/A   Partly Cloudy
12:50 PM 78.8 °F 55.4 °F 44% 30.06 in 6.2 mi West 9.2 mph - N/A   Partly Cloudy
1:20 PM 77.0 °F 55.4 °F 47% 30.06 in 6.2 mi West 11.5 mph - N/A   Partly Cloudy
1:50 PM 78.8 °F 57.2 °F 47% 30.06 in 6.2 mi West 11.5 mph - N/A   Partly Cloudy
2:20 PM 78.8 °F 57.2 °F 47% 30.04 in 6.2 mi West 13.8 mph - N/A   Partly Cloudy
2:50 PM 78.8 °F 57.2 °F 47% 30.04 in 6.2 mi West 13.8 mph - N/A   Partly Cloudy
3:20 PM 78.8 °F 57.2 °F 47% 30.04 in 6.2 mi West 13.8 mph - N/A   Partly Cloudy
3:50 PM 78.8 °F 55.4 °F 44% 30.04 in 6.2 mi West 13.8 mph - N/A   Partly Cloudy
4:20 PM 78.8 °F 55.4 °F 44% 30.04 in 6.2 mi West 17.3 mph - N/A   Partly Cloudy
4:50 PM 77.0 °F 55.4 °F 47% 30.04 in 6.2 mi WSW 18.4 mph - N/A   Partly Cloudy
5:20 PM 75.2 °F 57.2 °F 53% 30.04 in 6.2 mi West 16.1 mph - N/A   Partly Cloudy
5:50 PM 75.2 °F 57.2 °F 53% 30.04 in 6.2 mi West 15.0 mph - N/A   Partly Cloudy
6:20 PM 73.4 °F 55.4 °F 53% 30.04 in - West 13.8 mph - N/A   Clear
6:50 PM 73.4 °F 59.0 °F 61% 30.04 in - West 11.5 mph - N/A   Clear
7:20 PM 71.6 °F 57.2 °F 60% 30.04 in - West 9.2 mph - N/A   Clear
7:50 PM 69.8 °F 59.0 °F 68% 30.04 in - West 6.9 mph - N/A   Clear
8:20 PM 69.8 °F 60.8 °F 73% 30.06 in - West 3.5 mph - N/A   Clear
8:50 PM 69.8 °F 60.8 °F 73% 30.06 in - WSW 4.6 mph - N/A   Clear
9:20 PM 68.0 °F 59.0 °F 73% 30.06 in - Variable 2.3 mph - N/A   Clear
9:50 PM 64.4 °F 57.2 °F 77% 30.06 in - SE 4.6 mph - N/A   Clear
10:20 PM 64.4 °F 57.2 °F 77% 30.06 in - SSE 6.9 mph - N/A   Clear
10:50 PM 64.4 °F 57.2 °F 77% 30.06 in - Variable 2.3 mph - N/A   Clear
11:20 PM 62.6 °F 57.2 °F 82% 30.06 in - Calm Calm - N/A   Clear
11:50 PM 60.8 °F 55.4 °F 82% 30.06 in - ESE 3.5 mph - N/A   Clear